Weather History for Sturgis, MI

Change the Weather History Date:

Saturday, October 12, 2013

  Actual Average (KHAI) Record (KHAI)
Temperature  
Mean Temperature 64 °F -  
Max Temperature 78 °F 63 °F 81 °F (1962)
Min Temperature 51 °F 40 °F 24 °F (1957)
Growing Degree Days 14 (Base 50)    
Moisture  
Dew Point 53 °F    
Average Humidity 71    
Maximum Humidity 100    
Minimum Humidity 36    
Precipitation  
Precipitation 0.00 in - - ()
Sea Level Pressure  
Sea Level Pressure 30.06 in    
Wind  
Wind Speed 5 mph (South)    
Max Wind Speed 13 mph    
Max Gust Speed 20 mph    
Visibility 9 miles    
Events Rain    
Averages and records for this station are not official NWS values.
T = Trace of Precipitation, MM = Missing Value Source: NWS Daily Summary

Daily Weather History Graph

Daily Weather History Graph

Search for Another Location

Airport:

Trip Planner

Search our weather history database for the weather conditions in past years. The results will help you decide how hot, cold, wet, or windy it might be!

Date:

Astronomy

Oct. 12, 2013 Rise Set
Actual Time 7:50 AM EDT 7:04 PM EDT
Civil Twilight 7:22 AM EDT 7:32 PM EDT
Nautical Twilight 6:50 AM EDT 8:04 PM EDT
Astronomical Twilight 6:18 AM EDT 8:37 PM EDT
Moon 3:18 PM EDT (10/12) 12:48 AM EDT (10/12)
Length of Visible Light 12h 09m
Length of Day
11h 13m
First Quarter, 58% of the Moon is Illuminated
Oct 12
First Quarter
Oct 18
Full
Oct 26
Last Quarter
Nov 3
New
Nov 10
First Quarter

Hourly Weather History & Observations

Time (EDT) Temp. Dew Point Humidity Pressure Visibility Wind Dir Wind Speed Gust Speed Precip Events Conditions
12:14 AM 57.2 °F 46.4 °F 67% 30.06 in 10.0 mi SE 4.6 mph - N/A   Clear
12:35 AM 57.2 °F 44.6 °F 63% 30.06 in 10.0 mi Calm Calm - N/A   Clear
12:55 AM 57.2 °F 46.4 °F 67% 30.06 in 10.0 mi SE 5.8 mph - N/A   Clear
1:14 AM 55.4 °F 48.2 °F 77% 30.06 in 10.0 mi SE 6.9 mph - N/A   Clear
1:35 AM 55.4 °F 50.0 °F 82% 30.06 in 10.0 mi SE 8.1 mph - N/A   Clear
1:55 AM 55.4 °F 51.8 °F 88% 30.06 in 10.0 mi SE 8.1 mph - N/A   Clear
2:14 AM 55.4 °F 51.8 °F 88% 30.06 in 10.0 mi SE 6.9 mph - N/A   Clear
2:35 AM 55.4 °F 51.8 °F 88% 30.06 in 10.0 mi SSE 5.8 mph - N/A   Clear
2:55 AM 53.6 °F 51.8 °F 94% 30.06 in 10.0 mi SSE 5.8 mph - N/A   Clear
3:14 AM 53.6 °F 51.8 °F 94% 30.06 in 10.0 mi SE 5.8 mph - N/A   Clear
3:35 AM 53.6 °F 51.8 °F 94% 30.06 in 10.0 mi SSE 4.6 mph - N/A   Clear
3:55 AM 53.6 °F 51.8 °F 94% 30.06 in 10.0 mi SE 5.8 mph - N/A   Clear
4:14 AM 53.6 °F 51.8 °F 94% 30.06 in 10.0 mi SE 4.6 mph - N/A   Clear
4:35 AM 53.6 °F 51.8 °F 94% 30.06 in 10.0 mi South 3.5 mph - N/A   Clear
4:55 AM 51.8 °F 50.0 °F 94% 30.07 in 7.0 mi Calm Calm - N/A   Clear
5:14 AM 53.6 °F 51.8 °F 94% 30.06 in 7.0 mi SE 3.5 mph - N/A   Clear
5:35 AM 53.6 °F 51.8 °F 94% 30.06 in 5.0 mi SSE 3.5 mph - N/A   Clear
5:55 AM 53.6 °F 51.8 °F 94% 30.06 in 5.0 mi SSE 3.5 mph - N/A   Clear
6:14 AM 53.6 °F 51.8 °F 94% 30.07 in 5.0 mi SE 4.6 mph - N/A   Clear
6:35 AM 53.6 °F 51.8 °F 94% 30.07 in 5.0 mi SSE 3.5 mph - N/A   Clear
6:55 AM 53.6 °F 51.8 °F 94% 30.07 in 5.0 mi SE 5.8 mph - N/A   Clear
7:14 AM 53.6 °F 51.8 °F 94% 30.07 in 5.0 mi SE 4.6 mph - N/A   Clear
7:35 AM 51.8 °F 51.8 °F 100% 30.07 in 7.0 mi SE 4.6 mph - N/A   Clear
7:55 AM 51.8 °F 50.0 °F 94% 30.07 in 7.0 mi SE 4.6 mph - N/A   Clear
8:14 AM 51.8 °F 51.8 °F 100% 30.07 in 5.0 mi SSE 5.8 mph - N/A   Clear
8:35 AM 53.6 °F 51.8 °F 94% 30.07 in 7.0 mi SSE 5.8 mph - N/A   Clear
8:54 AM 53.6 °F 51.8 °F 94% 30.08 in 10.0 mi South 3.5 mph - N/A   Clear
9:15 AM 55.4 °F 51.8 °F 88% 30.08 in 10.0 mi Calm Calm - N/A   Clear
9:35 AM 57.2 °F 51.8 °F 82% 30.08 in 10.0 mi Calm Calm - N/A   Clear
9:54 AM 60.8 °F 53.6 °F 77% 30.08 in 10.0 mi SSE 3.5 mph - N/A   Clear
10:15 AM 62.6 °F 53.6 °F 72% 30.08 in 10.0 mi SE 4.6 mph - N/A   Clear
10:35 AM 64.4 °F 53.6 °F 68% 30.08 in 10.0 mi SE 6.9 mph - N/A   Clear
10:54 AM 66.2 °F 53.6 °F 64% 30.08 in 10.0 mi SSE 6.9 mph - N/A   Clear
11:15 AM 68.0 °F 53.6 °F 60% 30.07 in 10.0 mi South 4.6 mph - N/A   Clear
11:35 AM 69.8 °F 53.6 °F 56% 30.07 in 10.0 mi SSE 6.9 mph - N/A   Clear
11:54 AM 71.6 °F 51.8 °F 50% 30.07 in 10.0 mi South 6.9 mph - N/A   Clear
12:15 PM 71.6 °F 51.8 °F 50% 30.06 in 10.0 mi SE 8.1 mph - N/A   Clear
12:35 PM 73.4 °F 51.8 °F 47% 30.05 in 10.0 mi South 8.1 mph - N/A   Clear
12:54 PM 73.4 °F 51.8 °F 47% 30.05 in 10.0 mi South 10.4 mph - N/A   Clear
1:15 PM 75.2 °F 51.8 °F 44% 30.05 in 10.0 mi SSW 11.5 mph - N/A   Clear
1:35 PM 75.2 °F 53.6 °F 47% 30.04 in 10.0 mi SSW 6.9 mph - N/A   Clear
1:54 PM 77.0 °F 51.8 °F 41% 30.04 in 10.0 mi South 11.5 mph - N/A   Clear
2:15 PM 77.0 °F 51.8 °F 41% 30.04 in 10.0 mi South 11.5 mph - N/A   Clear
2:35 PM 77.0 °F 51.8 °F 41% 30.03 in 10.0 mi SSW 11.5 mph 16.1 mph N/A   Clear
2:54 PM 77.0 °F 51.8 °F 41% 30.03 in 10.0 mi SSW 10.4 mph 17.3 mph N/A   Clear
3:15 PM 77.0 °F 50.0 °F 39% 30.02 in 10.0 mi SSW 11.5 mph 19.6 mph N/A   Clear
3:35 PM 77.0 °F 48.2 °F 36% 30.02 in 10.0 mi South 9.2 mph - N/A   Clear
3:54 PM 77.0 °F 51.8 °F 41% 30.02 in 10.0 mi South 11.5 mph - N/A   Clear
4:15 PM 78.8 °F 50.0 °F 36% 30.01 in 10.0 mi South 10.4 mph - N/A   Clear
4:35 PM 77.0 °F 51.8 °F 41% 30.01 in 10.0 mi SSW 9.2 mph 16.1 mph N/A   Clear
4:54 PM 77.0 °F 51.8 °F 41% 30.02 in 10.0 mi South 12.7 mph - N/A   Clear
5:15 PM 75.2 °F 51.8 °F 44% 30.02 in 10.0 mi SSW 9.2 mph - N/A   Clear
5:35 PM 73.4 °F 51.8 °F 47% 30.02 in 10.0 mi SW 6.9 mph - N/A   Clear
5:54 PM 71.6 °F 51.8 °F 50% 30.03 in 10.0 mi SW 5.8 mph - N/A   Clear
6:15 PM 71.6 °F 53.6 °F 53% 30.03 in 10.0 mi SW 4.6 mph - N/A   Clear
6:35 PM 71.6 °F 53.6 °F 53% 30.03 in 10.0 mi SSW 4.6 mph - N/A   Clear
6:55 PM 69.8 °F 53.6 °F 56% 30.04 in 10.0 mi SSW 4.6 mph - N/A   Clear
7:14 PM 69.8 °F 51.8 °F 53% 30.04 in 10.0 mi SW 3.5 mph - N/A   Scattered Clouds
7:34 PM 68.0 °F 51.8 °F 56% 30.04 in 10.0 mi SSW 3.5 mph - N/A   Mostly Cloudy
7:55 PM 68.0 °F 51.8 °F 56% 30.05 in 10.0 mi Calm Calm - N/A   Mostly Cloudy
8:14 PM 68.0 °F 53.6 °F 60% 30.05 in 10.0 mi Calm Calm - N/A   Overcast
8:35 PM 66.2 °F 53.6 °F 64% 30.06 in 10.0 mi South 3.5 mph - N/A   Mostly Cloudy
8:55 PM 66.2 °F 53.6 °F 64% 30.06 in 10.0 mi Calm Calm - N/A   Mostly Cloudy
9:14 PM 66.2 °F 55.4 °F 68% 30.06 in 10.0 mi Calm Calm - N/A   Overcast
9:35 PM 68.0 °F 55.4 °F 64% 30.07 in 10.0 mi WSW 6.9 mph - N/A   Overcast
9:55 PM 68.0 °F 57.2 °F 68% 30.09 in 10.0 mi WNW 11.5 mph - N/A   Overcast
10:14 PM 64.4 °F 60.8 °F 88% 30.09 in 7.0 mi NW 4.6 mph - N/A Rain Rain
10:35 PM 64.4 °F 60.8 °F 88% 30.10 in 7.0 mi NW 4.6 mph - N/A   Light Drizzle
10:55 PM 64.4 °F 62.6 °F 94% 30.11 in 7.0 mi NW 3.5 mph - N/A   Mostly Cloudy
11:14 PM 64.4 °F 62.6 °F 94% 30.11 in 5.0 mi WNW 3.5 mph - N/A   Mostly Cloudy
11:35 PM 64.4 °F 62.6 °F 94% 30.12 in 5.0 mi NW 4.6 mph - N/A   Mostly Cloudy
11:55 PM 62.6 °F 62.6 °F 100% 30.12 in 5.0 mi NW 4.6 mph - N/A   Scattered Clouds